Wind_Speed
45 46 46 45 43 41 39 37 35 34 34 34 34 34 32 30 28 25 23 21 18 16 14 11 10 9 8 9 10 12 14 17 19 22 24 26 29 31
47 48 48 48 47 45 42 40 38 38 37 37 36 35 34 32 30 28 26 23 21 19 16 14 12 11 10 9 9 11 13 15 18 20 22 24 26 28
52 51 51 51 51 49 47 44 42 41 41 39 38 37 36 35 33 31 29 26 24 21 19 16 14 13 12 11 10 11 12 14 16 18 20 22 24 26
57 56 55 54 54 52 51 49 46 44 43 43 41 39 39 38 37 34 31 29 27 24 21 18 16 15 14 13 12 12 12 13 15 17 18 21 23 24
62 60 59 58 56 56 54 53 51 49 46 45 44 42 41 40 39 36 34 32 29 26 23 20 18 17 16 14 13 13 13 14 15 16 18 19 21 23
64 63 62 61 59 58 58 57 54 53 51 48 47 46 43 42 41 39 37 34 31 28 26 23 20 18 17 16 14 14 14 14 15 16 17 18 20 21
62 61 61 62 61 60 60 60 58 55 54 51 49 49 47 44 42 41 39 37 34 31 28 25 21 18 17 16 15 15 15 15 16 17 18 18 19 19
55 55 57 59 61 61 61 60 60 58 57 54 50 49 48 46 44 43 42 41 37 34 31 26 22 19 18 17 15 15 15 16 16 17 18 19 20 20
49 50 52 55 57 59 61 61 61 60 58 55 53 49 48 47 47 45 45 43 40 36 33 28 24 21 19 17 16 15 15 16 17 18 19 20 21 21
44 44 47 49 52 53 56 59 60 59 59 56 53 50 48 46 45 46 46 45 42 38 34 30 26 23 20 18 17 16 16 17 17 19 20 21 21 21
39 40 42 44 45 47 49 53 56 58 58 58 54 53 49 46 45 45 45 44 43 40 36 32 28 25 22 19 18 16 16 17 18 19 21 21 22 22
35 37 38 39 42 44 45 46 49 52 55 56 55 53 52 49 45 44 44 44 44 41 38 34 30 27 23 21 18 17 17 18 18 19 19 20 20 21
31 34 36 37 39 40 42 43 45 47 50 53 54 53 51 50 48 44 43 43 43 41 39 37 33 29 25 22 20 18 17 17 17 17 18 18 18 18
27 30 33 34 36 37 39 41 42 44 46 49 51 52 52 51 49 47 45 44 42 42 42 39 35 31 27 24 21 18 17 16 16 15 16 17 18 18
26 28 30 32 33 34 36 38 39 40 42 45 48 49 50 50 49 48 46 45 42 42 42 39 36 32 28 25 22 19 17 16 16 16 16 17 18 19
25 28 29 30 31 32 33 35 36 38 39 42 45 48 49 51 50 49 46 44 42 42 42 40 37 33 30 26 23 21 19 18 18 17 18 18 19 19
25 26 27 27 29 29 31 32 34 35 37 39 43 46 49 51 50 48 47 44 43 42 42 40 37 34 31 27 24 22 21 20 19 19 19 19 20 20
22 23 24 25 26 27 28 30 31 33 35 38 41 44 47 49 50 49 48 45 43 42 41 40 38 35 31 27 25 23 21 20 20 20 19 19 20 20
21 22 23 23 24 24 25 27 28 29 32 36 39 43 46 49 49 48 45 42 39 40 40 39 37 35 31 27 25 23 22 21 20 20 19 19 19 19
21 22 23 24 24 23 24 24 25 26 29 33 38 42 46 48 48 47 44 42 38 38 38 37 36 34 30 28 26 24 22 21 20 19 19 18 18 18
20 21 22 23 22 22 23 23 24 25 27 31 35 40 45 48 48 46 44 41 39 38 37 35 34 33 31 29 27 24 22 21 20 19 18 18 17 17
19 21 22 22 22 22 22 23 24 25 26 29 33 38 44 47 47 46 45 42 39 38 37 37 36 34 31 28 26 24 23 21 20 18 17 16 16 15
19 20 21 22 22 22 22 23 24 24 25 28 31 36 43 47 47 46 45 42 41 39 39 38 36 33 31 29 26 24 23 21 20 18 17 17 17 18
Wind_Direction
255 251 249 248 249 247 243 239 234 230 226 223 219 216 214 212 211 210 214 215 216 215 216 221 228 237 245 249 252 253 251 250 249 249 250 251 251 251
256 251 248 246 245 244 243 239 234 230 227 224 221 219 217 215 213 213 214 214 216 217 221 227 235 243 251 257 259 260 257 255 254 253 253 254 255 257
255 251 247 244 242 242 241 240 235 231 228 225 223 221 219 217 215 214 214 215 216 219 224 231 239 248 255 262 267 268 265 262 260 258 258 258 259 260
253 250 247 243 241 239 239 239 236 232 229 226 224 223 221 218 216 215 214 215 217 220 225 233 240 248 256 264 269 272 271 268 267 265 263 263 262 262
252 248 245 242 239 237 237 236 236 233 230 227 224 223 222 220 217 215 214 216 217 221 226 233 240 248 254 259 264 269 270 269 267 267 265 265 264 263
251 246 242 240 238 236 234 234 234 233 231 229 225 223 222 221 218 216 215 216 218 221 226 232 238 246 250 254 258 263 266 268 267 265 264 264 263 263
250 245 241 237 235 234 233 232 231 231 230 229 226 224 223 221 220 217 216 217 218 221 225 229 234 241 247 251 256 261 264 267 267 265 263 262 262 260
246 242 237 234 232 231 230 230 230 229 229 228 227 225 223 222 221 219 216 216 218 219 223 226 231 238 244 248 254 260 264 266 265 263 262 260 258 259
240 236 233 230 228 228 229 229 228 228 228 228 227 226 224 221 221 220 217 216 217 218 221 224 229 236 241 247 253 260 264 266 265 262 259 259 257 259
233 229 226 224 224 224 226 227 227 227 226 226 226 226 225 221 220 220 218 216 216 218 220 223 227 233 238 245 252 260 265 266 264 261 259 259 258 259
225 221 217 218 217 219 222 225 225 225 225 224 223 225 225 224 220 219 218 216 216 217 219 222 225 230 235 242 249 258 263 264 263 261 260 258 256 257
215 212 209 210 211 213 216 220 222 223 223 222 221 221 223 223 222 220 219 217 216 216 218 222 225 229 233 239 245 253 259 262 262 260 259 257 254 253
205 202 203 205 207 209 211 214 217 218 219 219 218 218 217 221 222 220 219 219 217 216 217 221 224 228 232 236 242 248 255 260 260 259 258 255 250 248
197 195 197 200 205 207 208 210 212 214 215 216 216 216 216 219 222 222 221 220 218 216 217 220 223 227 231 234 238 242 247 252 254 256 256 251 248 247
189 188 190 196 201 203 204 205 208 210 212 212 212 213 213 215 217 219 220 220 219 217 217 219 223 226 229 232 233 237 242 246 249 252 252 250 249 248
184 185 188 193 196 199 201 203 205 207 208 209 209 210 210 211 214 218 221 221 221 218 217 218 222 225 227 227 228 233 239 246 250 254 253 252 250 248
180 183 186 189 193 195 198 200 202 204 205 207 207 208 209 211 213 216 218 221 221 219 218 219 221 224 224 224 227 234 240 246 251 255 256 255 254 252
177 179 183 186 189 192 196 198 199 201 202 204 204 205 207 209 211 212 215 218 219 218 217 218 219 221 223 225 229 235 240 247 253 257 259 258 255 252
179 180 181 184 185 188 191 194 195 196 197 198 200 202 203 204 207 209 212 215 217 215 215 217 218 219 221 224 229 235 241 247 253 256 256 254 252 250
184 184 185 185 187 188 190 191 191 193 195 196 197 198 200 201 203 205 209 213 214 214 214 216 217 218 221 225 229 235 242 248 251 253 252 250 247 245
189 189 190 191 193 195 195 193 192 193 194 196 196 197 198 198 199 201 204 206 209 209 210 213 215 218 221 225 229 235 242 247 249 250 247 244 240 237
193 194 195 198 200 202 201 199 197 196 196 196 196 197 196 196 197 199 200 200 202 204 206 210 213 216 221 225 230 235 240 243 246 245 241 236 230 224
198 200 203 205 207 208 207 204 200 199 199 198 197 196 195 194 194 194 194 196 199 202 204 208 212 216 220 224 230 234 238 240 241 239 235 230 225 223
Height
5722 5726 5730 5735 5740 5745 5750 5755 5760 5765 5770 5774 5779 5784 5789 5794 5799 5803 5807 5811 5815 5819 5822 5825 5827 5829 5830 5832 5833 5834 5836 5838 5840 5842 5845 5847 5850 5852
5707 5711 5716 5722 5727 5732 5738 5744 5750 5755 5760 5766 5771 5776 5781 5787 5792 5796 5801 5806 5810 5813 5817 5820 5823 5825 5826 5827 5828 5829 5831 5832 5834 5836 5838 5841 5843 5845
5691 5696 5701 5707 5713 5719 5725 5732 5739 5745 5751 5757 5762 5768 5773 5779 5784 5789 5795 5799 5804 5808 5811 5815 5817 5820 5821 5823 5823 5824 5826 5827 5828 5830 5832 5834 5836 5838
5672 5678 5684 5691 5698 5705 5712 5719 5726 5733 5741 5747 5753 5759 5764 5770 5776 5782 5788 5793 5797 5802 5806 5809 5812 5814 5816 5818 5818 5819 5820 5821 5823 5824 5826 5828 5830 5831
5650 5658 5666 5673 5681 5689 5697 5705 5713 5721 5729 5736 5743 5749 5755 5761 5767 5774 5780 5786 5791 5796 5800 5803 5806 5809 5811 5812 5813 5815 5815 5816 5817 5819 5820 5822 5824 5825
5626 5635 5645 5654 5663 5672 5681 5690 5699 5708 5716 5724 5732 5739 5746 5752 5759 5766 5773 5779 5784 5789 5794 5797 5800 5803 5805 5807 5808 5809 5810 5811 5812 5813 5814 5816 5818 5819
5602 5612 5623 5633 5644 5654 5664 5674 5684 5694 5703 5712 5721 5729 5736 5743 5751 5757 5765 5771 5777 5782 5787 5791 5795 5797 5800 5801 5803 5804 5805 5805 5806 5807 5809 5811 5812 5814
5580 5590 5601 5612 5624 5636 5647 5658 5669 5679 5690 5700 5710 5718 5726 5734 5741 5748 5756 5763 5769 5775 5780 5785 5789 5792 5794 5796 5797 5798 5799 5800 5800 5802 5803 5805 5807 5809
5562 5572 5582 5593 5606 5619 5631 5642 5654 5665 5676 5687 5698 5707 5716 5724 5731 5739 5747 5755 5762 5768 5773 5778 5782 5785 5788 5790 5791 5792 5793 5794 5795 5796 5798 5800 5802 5803
5546 5557 5567 5579 5591 5604 5615 5627 5639 5651 5664 5675 5687 5696 5704 5712 5721 5729 5737 5746 5754 5760 5767 5772 5775 5778 5781 5784 5785 5786 5787 5788 5790 5791 5792 5794 5796 5797
5533 5544 5555 5567 5579 5591 5603 5614 5626 5637 5648 5661 5673 5684 5694 5702 5711 5719 5728 5737 5745 5752 5759 5765 5769 5772 5775 5777 5779 5780 5782 5783 5784 5785 5787 5788 5790 5792
5524 5534 5545 5557 5568 5579 5590 5601 5612 5624 5636 5649 5661 5673 5683 5693 5701 5710 5719 5728 5736 5744 5751 5757 5762 5765 5768 5771 5773 5775 5776 5777 5778 5780 5781 5783 5784 5786
5518 5528 5538 5548 5559 5570 5581 5591 5601 5612 5624 5637 5649 5661 5672 5683 5693 5701 5710 5719 5728 5736 5743 5749 5754 5759 5762 5765 5767 5769 5770 5772 5773 5775 5776 5778 5780 5782
5515 5524 5533 5543 5553 5562 5573 5582 5592 5603 5614 5627 5639 5651 5663 5674 5683 5693 5702 5710 5719 5727 5734 5741 5747 5752 5756 5759 5762 5763 5765 5767 5768 5770 5772 5773 5775 5777
5514 5522 5530 5539 5548 5557 5566 5576 5585 5595 5606 5618 5630 5642 5653 5664 5674 5684 5693 5701 5710 5718 5726 5734 5740 5745 5750 5753 5756 5758 5760 5762 5764 5765 5767 5769 5771 5773
5514 5521 5529 5537 5545 5553 5562 5570 5579 5589 5599 5609 5620 5632 5643 5654 5664 5675 5685 5693 5702 5710 5718 5726 5732 5738 5743 5746 5750 5753 5755 5757 5759 5760 5762 5764 5766 5767
5515 5522 5529 5536 5543 5551 5559 5567 5575 5583 5592 5602 5612 5623 5634 5645 5656 5666 5676 5686 5695 5703 5711 5718 5725 5731 5736 5740 5744 5747 5750 5752 5753 5755 5756 5758 5760 5762
5518 5524 5530 5536 5543 5550 5557 5564 5571 5578 5586 5595 5604 5615 5625 5636 5647 5658 5668 5678 5687 5695 5703 5711 5718 5724 5730 5734 5738 5741 5744 5746 5747 5749 5750 5752 5754 5756
5520 5525 5531 5537 5543 5549 5555 5561 5567 5573 5580 5588 5597 5607 5617 5628 5639 5649 5659 5670 5679 5688 5696 5704 5711 5718 5723 5728 5732 5735 5738 5740 5741 5743 5744 5746 5748 5750
5521 5526 5532 5537 5542 5548 5553 5559 5564 5570 5576 5583 5591 5600 5610 5620 5631 5642 5652 5662 5672 5681 5689 5697 5705 5712 5717 5721 5725 5729 5732 5734 5735 5736 5738 5740 5742 5744
5523 5527 5532 5537 5542 5547 5552 5557 5562 5567 5573 5579 5586 5594 5604 5614 5624 5635 5645 5655 5665 5674 5683 5691 5698 5704 5709 5714 5719 5723 5725 5727 5729 5730 5732 5734 5736 5738
5524 5528 5532 5536 5541 5546 5550 5554 5559 5565 5570 5576 5582 5589 5598 5608 5619 5629 5639 5649 5658 5668 5676 5684 5690 5696 5703 5708 5712 5715 5719 5721 5723 5724 5727 5729 5731 5734
5524 5527 5531 5535 5539 5543 5548 5552 5557 5562 5567 5573 5579 5586 5594 5603 5613 5623 5632 5643 5652 5661 5669 5677 5684 5691 5696 5701 5705 5709 5712 5715 5717 5719 5722 5724 5727 5729